Orbital Elements at Epoch 2459200.5 (2020-Dec-17.0) TDB
Reference: JPL 12 (heliocentric ecliptic J2000)
Element | Value | Uncertainty (1-sigma) | Units |
e | .1895227829661138 | 6.2167e-08 | |
a | 3.127702687287248 | 2.8413e-08 | au |
q | 2.534931769701976 | 1.909e-07 | au |
i | 13.30773627158672 | 7.23e-06 | deg |
node | 212.125267199529 | 2.4279e-05 | deg |
peri | 236.147331422279 | 2.8841e-05 | deg |
M | 247.63086646292 | 1.8531e-05 | deg |
tp | 2459831.139476532855 (2022-Sep-08.63947653) | 0.00010772 | TDB |
period | 2020.39656625911 5.53 | 2.7531e-05 7.538e-08 | d yr |
n | .1781828409392729 | 2.428e-09 | deg/d |
Q | 3.72047360487252 | 3.3798e-08 | au |
|
| | Orbit Determination Parameters
Additional Information
|